Regional Weather Roundup
Issued by NWS

Home | Current Version | Previous Version | Graphics & Text | Print | Product List | Glossary On
Versions: 1 2 3 4 5 6 7 8 9 10 11 12 13 14 15 16 17 18 19 20 21 22 23 24 25 26 27 28 29 30 31 32 33 34 35 36 37 38 39 40 41 42 43 44 45 46 47 48 49 50
000
ASUS43 KTOP 070159
RWRKS

WEATHER ROUNDUP FOR KANSAS
NATIONAL WEATHER SERVICE GOODLAND KS
800 PM CST SAT FEB 06 2016

NOTE:  "FAIR" INDICATES FEW OR NO CLOUDS BELOW 12,000 FEET WITH NO
SIGNIFICANT WEATHER AND/OR OBSTRUCTIONS TO VISIBILITY.

KSZ001>006-013>018-027>032-041>047-070300-
NORTHWEST KANSAS

CITY           SKY/WX    TMP DP  RH WIND       PRES   REMARKS
GOODLAND       CLOUDY    37  22  54 W17       30.06F WCI  27
HAYS           CLOUDY    37  21  52 SW15      30.07F WCI  28
HILL CITY      PTCLDY    38  28  67 SW9       30.04F
RUSSELL        CLOUDY    37  28  70 S12       30.06F WCI  29
$$

KSZ061>065-074>080-084>089-070300-
SOUTHWEST KANSAS

CITY           SKY/WX    TMP DP  RH WIND       PRES   REMARKS
DODGE CITY     CLOUDY    35  16  45 S9        30.13F
ELKHART          N/A     41  10  28 S12         N/A
GARDEN CITY    CLOUDY    36  18  48 S9        30.11F
GREAT BEND     CLOUDY    39  21  48 S9        30.10F
LIBERAL        CLOUDY    39  16  38 S13       30.15F WCI  32
$$

KSZ066>073-081>083-090>101-070300-
SOUTHEAST KANSAS

CITY           SKY/WX    TMP DP  RH WIND       PRES   REMARKS
CHANUTE        CLEAR     36  26  67 SW9       30.21F
COFFEYVILLE    PTCLDY    42  27  55 SW7       30.24F
HUTCHINSON     CLOUDY    40  25  55 S10       30.15F WCI  33
MEDICINE LODGE   N/A     41  21  44 S9        30.16F
NEWTON         CLOUDY    39  25  56 S12       30.16F WCI  32
PARSONS        CLEAR     39  26  59 SW5       30.24S
WICHITA INTL   CLOUDY    37  27  67 S13       30.17F WCI  29
WICHITA JABRA  CLOUDY    40  26  57 S12       30.16F WCI  33
WINFIELD       CLEAR     34  25  69 S7        30.21F
$$

KSZ007>012-019>026-033>040-048>060-102>105-070300-
NORTHEAST KANSAS

CITY           SKY/WX    TMP DP  RH WIND       PRES   REMARKS
CONCORDIA      CLOUDY    41  24  51 SW13      30.05F
EMPORIA        CLEAR     34  26  72 S13       30.15F WCI  25
LAWRENCE       CLOUDY    38  27  64 SW7       30.15F
MANHATTAN      CLEAR     41  27  57 SW14      30.11F
OLATHE IND     PTCLDY    37  27  67 S9        30.15F
OLATHE EXE     CLOUDY    37  27  67 S5        30.14F
SALINA         PTCLDY    41  26  55 S10       30.11F
TOPEKA BILLARD PTCLDY    43  27  53 SW9       30.14F
TOPEKA FORBES  CLOUDY    38  28  67 S8        30.13F
$$



USA.gov is the U.S. government's official web portal to all federal, state and local government web resources and services.